Retour au catalogue

STARLINK-4036

ActifCommunicationsVLEO
NORAD 52837·PAYLOAD·🇺🇸 United States

Lancé Jun 17, 2022 depuis Cape Canaveral Space Force Station

Loading…

Prochains Passages (prochaines 24 heures)

TLE

FraisSource: CelesTrak SupGP

Époque: Sep 14, 2026, 21:20 UTC

1 52837C 22062H   26257.88937500  .00013932  00000+0  41169-3 0  2577
2 52837  53.1577 254.2796 0001323  92.6098  78.9376 15.34378740    16

Suivez STARLINK-4036 en temps réel avec AllMySat

Download on the App Store